Dewpoint
57 57 57 57 57 57 57 57 57 57 57 57 58 59 59 59 59 54 21 30 38 68 61 57 46 46 49 51 59 59 53 51 51 50 44 50 49 49 51 56 57 58 60 62 64
56 56 56 56 57 57 57 57 57 57 57 57 57 59 59 59 50 33 47 63 69 69 39 43 46 47 45 50 57 54 52 48 53 51 43 50 49 47 53 55 57 59 62 63 63
56 56 56 56 56 56 57 57 57 57 58 57 58 59 59 57 32 10 62 67 70 63 31 34 43 35 36 43 51 53 48 46 44 45 45 48 47 52 53 53 56 59 61 62 65
55 55 55 55 56 56 56 57 57 57 59 58 58 59 58 54 10 40 66 69 71 46 26 29 35 36 32 30 36 40 43 47 32 25 38 46 48 51 53 53 57 61 62 63 65
55 54 55 55 55 55 56 56 56 57 59 58 58 58 52 27 26 57 71 70 52 30 21 36 41 38 30 28 27 28 27 29 28 26 25 48 49 52 52 55 59 61 62 64 65
54 54 54 54 54 55 55 55 56 57 58 58 58 58 51 31 50 57 54 37 27 24 22 34 39 35 32 26 24 26 24 24 27 28 28 44 47 52 53 57 58 60 62 63 64
54 54 54 54 54 54 54 55 55 57 58 58 58 56 47 38 49 46 34 28 28 24 26 35 41 31 29 26 27 24 23 26 28 26 21 33 40 43 54 56 57 59 61 62 63
53 53 54 54 54 54 54 54 56 56 58 58 58 53 30 44 45 34 32 27 31 29 36 39 39 33 29 28 26 26 25 24 25 23 20 22 22 53 54 55 57 59 59 60 61
53 53 54 54 54 54 54 54 56 58 58 58 52 49 38 48 36 36 30 25 30 30 33 33 31 27 27 25 22 22 20 26 24 24 20 20 19 52 54 54 55 57 58 59 60
53 53 53 53 53 53 53 55 59 58 58 56 53 40 42 37 38 35 34 35 35 34 34 32 29 26 25 24 15 21 18 24 24 20 20 21 25 52 52 53 54 54 55 57 58
53 53 53 53 53 52 52 52 33 35 50 14 25 36 39 41 37 36 36 36 36 30 29 32 27 26 25 25 26 27 24 20 20 23 21 23 32 51 52 52 52 53 54 55 55
52 52 52 52 52 53 49 43 38 36 37 36 37 37 38 37 30 32 36 32 32 27 30 26 27 29 30 28 28 29 25 19 20 20 22 32 32 42 51 51 52 52 53 54 54
52 52 52 52 51 48 40 44 41 43 33 31 37 36 32 33 29 31 33 30 27 27 26 24 24 30 29 25 20 27 20 21 20 22 23 32 33 36 52 52 52 52 53 54 53
51 52 51 50 33 38 39 45 32 39 25 23 30 29 28 30 28 30 31 27 27 25 26 25 25 25 23 25 22 33 24 24 20 19 18 27 29 31 45 53 55 51 52 52 54
51 51 51 50 39 28 32 31 36 30 13 19 29 26 25 25 21 23 30 26 24 25 22 20 22 21 23 22 22 22 24 25 25 20 19 22 25 33 48 51 56 57 53 53 55
50 50 50 45 41 38 34 33 34 24 17 26 24 23 22 22 19 25 26 26 26 24 24 22 23 20 22 24 24 25 24 24 28 23 20 25 20 26 43 49 55 59 59 60 61
50 49 48 45 16 31 36 36 27 21 21 23 18 20 22 20 20 22 23 23 21 17 17 20 21 22 22 18 25 22 22 20 20 22 22 27 27 28 36 51 56 59 60 61 62
49 49 47 46 44 38 37 35 28 21 24 26 17 19 21 18 19 20 21 21 21 19 19 17 18 23 24 18 19 23 21 20 21 19 21 29 31 34 42 45 57 60 60 60 61
48 39 38 39 45 36 37 32 29 29 32 27 17 17 17 17 17 18 19 18 20 18 16 17 20 25 25 24 23 25 22 23 22 21 20 22 33 42 45 51 56 56 58 59 60
42 40 37 40 41 39 36 34 33 33 29 24 18 18 17 15 14 16 17 18 18 20 19 20 25 24 25 25 25 22 23 19 20 20 22 22 31 34 43 47 53 53 56 58 59
34 21 16 42 41 33 31 32 32 35 32 23 27 21 16 16 14 16 16 18 18 20 23 23 25 22 25 23 22 22 24 25 23 22 18 22 28 37 41 44 49 52 55 57 57
30 6 24 39 34 35 31 32 34 27 24 20 24 26 24 27 16 15 15 18 22 22 19 27 22 23 23 28 28 27 25 27 26 24 25 23 24 34 37 43 48 50 54 55 56
32 28 35 33 31 32 34 29 29 24 24 21 21 26 27 26 24 28 25 30 30 22 23 26 23 22 20 21 24 26 31 29 28 28 28 25 26 32 41 41 45 47 50 53 54
31 21 38 37 35 32 29 27 26 26 24 23 21 25 25 23 25 27 29 29 33 39 53 38 25 23 20 21 24 27 28 30 28 28 27 26 27 31 38 42 45 47 51 52 53
34 29 39 35 37 39 37 28 23 24 24 23 23 24 25 26 25 26 29 29 31 45 30 26 25 26 28 25 27 27 27 25 25 25 23 24 29 27 32 43 47 49 51 52 53
36 37 38 37 39 39 35 31 30 31 27 26 23 27 26 24 24 27 28 31 26 29 29 29 26 27 31 31 30 30 29 28 28 28 29 27 25 29 34 47 48 49 51 52 52
38 37 38 37 34 33 32 32 31 34 33 29 27 31 31 31 32 32 35 31 29 28 33 32 30 26 29 32 30 26 29 29 33 34 30 29 29 41 45 47 48 48 49 51 51
Lifted_Index
17 17 17 16 15 13 13 13 14 14 14 13 13 13 13 12 11 9 8 8 8 7 7 5 3 1 1 1 -0 -1 0 -0 -1 -2 -1 -1 -1 -2 -2 -2 -2 -2 -2 -2 -2
17 17 17 17 15 14 13 13 14 14 14 13 13 13 13 12 10 9 9 9 8 7 7 6 4 2 2 1 0 0 1 1 0 -0 -0 -1 -2 -1 -2 -2 -2 -2 -2 -2 -2
18 18 18 18 16 15 13 13 14 14 14 14 13 13 13 11 9 8 8 8 8 8 8 6 4 3 2 2 2 1 2 2 2 2 1 -1 -1 -1 -1 -2 -2 -2 -2 -2 -2
18 18 18 18 17 16 14 13 14 14 14 14 13 13 12 10 7 6 7 7 7 8 8 6 4 3 3 3 3 3 3 3 3 3 2 -0 -1 -1 -2 -2 -2 -2 -2 -3 -3
19 19 19 18 18 16 14 13 14 14 14 14 13 13 11 9 7 5 5 6 8 8 7 6 5 4 3 3 3 3 3 3 3 3 2 0 -1 -1 -2 -2 -3 -2 -2 -3 -3
19 19 18 18 17 16 14 13 14 14 14 14 13 12 10 8 7 6 7 8 8 8 7 6 5 5 4 3 3 3 3 3 3 3 2 1 -1 -1 -2 -2 -3 -2 -3 -3 -3
19 18 18 18 17 16 14 14 14 14 14 14 13 12 9 7 7 8 9 9 9 8 7 7 6 5 4 4 3 3 3 2 2 2 2 1 -0 -1 -2 -3 -3 -2 -3 -3 -3
18 18 18 17 17 16 14 13 14 14 14 14 13 11 9 7 8 9 9 9 9 9 8 7 6 5 5 4 3 2 2 2 2 2 2 2 0 -1 -3 -3 -3 -3 -3 -3 -2
18 18 18 17 16 15 13 12 12 13 13 13 12 10 8 7 8 9 9 9 9 9 8 7 6 5 4 3 2 1 1 1 1 2 2 2 0 -1 -3 -3 -3 -3 -3 -3 -2
18 18 17 17 16 14 12 11 11 11 11 11 10 9 8 8 8 8 9 9 8 8 7 7 6 4 3 2 1 1 0 1 1 1 1 1 0 -1 -3 -3 -3 -3 -3 -3 -3
18 18 17 17 16 13 11 10 10 9 10 10 9 8 8 8 8 8 8 8 7 7 6 6 5 3 2 2 1 1 1 1 1 1 1 1 0 -1 -2 -3 -3 -3 -3 -3 -4
18 17 17 16 15 12 10 10 9 9 9 9 9 8 8 8 8 7 7 7 7 6 6 5 4 4 3 3 2 2 1 1 1 1 1 1 1 0 -1 -2 -3 -3 -3 -4 -4
18 17 17 16 14 11 9 9 9 9 8 8 8 8 8 8 8 7 7 7 6 6 5 5 5 4 4 3 3 2 1 1 1 1 1 1 1 1 -1 -2 -2 -3 -3 -3 -4
18 17 17 16 13 10 9 9 9 9 7 7 7 8 8 8 8 7 8 7 6 6 5 5 5 4 4 4 3 3 2 2 1 1 1 1 1 1 -0 -2 -2 -3 -3 -3 -3
18 17 17 16 13 11 9 9 9 7 5 6 7 8 8 8 8 8 8 8 7 6 5 5 5 4 4 4 4 3 3 2 2 2 1 1 1 1 0 -2 -3 -3 -3 -3 -3
17 17 17 15 14 12 10 8 8 6 5 5 7 7 7 7 7 8 8 8 7 6 5 5 5 4 4 4 4 4 3 3 2 2 1 1 2 2 1 -1 -3 -3 -4 -4 -4
17 17 16 15 14 12 10 8 6 5 5 6 6 6 6 7 7 7 7 7 6 5 5 5 5 4 4 4 4 3 3 2 1 1 1 2 2 2 1 -1 -3 -4 -4 -5 -5
16 15 15 14 14 12 9 7 6 5 6 6 6 6 6 6 7 7 6 6 6 5 5 4 4 4 4 3 3 3 3 2 1 1 1 2 2 2 1 -1 -3 -5 -5 -5 -6
15 14 13 13 14 12 9 7 6 6 6 6 6 6 6 6 7 6 6 6 6 5 5 4 4 4 3 3 3 3 3 2 2 1 1 2 2 2 1 -1 -4 -5 -6 -6 -6
13 12 12 12 13 11 9 7 7 6 6 5 5 5 5 5 6 6 6 5 5 5 5 4 4 3 3 3 3 3 3 3 2 1 1 1 2 2 2 -0 -3 -5 -5 -6 -6
11 11 11 11 11 10 8 7 7 6 6 5 5 5 4 5 5 5 5 5 5 5 4 4 4 3 3 3 3 3 3 3 3 2 2 2 2 2 2 0 -2 -4 -5 -5 -5
11 10 10 10 9 8 8 7 7 6 6 6 5 5 4 4 5 5 5 4 4 4 4 3 3 3 3 3 3 3 3 3 3 3 3 2 2 3 2 1 -1 -3 -3 -4 -4
10 10 10 9 8 7 7 7 6 6 6 6 6 5 5 4 4 5 4 4 3 3 3 2 2 2 2 2 2 2 3 3 3 3 3 3 3 3 2 1 -0 -1 -2 -3 -4
11 10 9 8 8 7 7 6 6 6 7 7 6 5 5 4 4 4 4 4 3 2 2 2 1 1 1 1 2 2 2 2 2 2 3 3 3 3 3 2 1 -1 -2 -3 -3
11 10 9 8 7 7 7 6 6 6 7 7 6 5 5 4 4 4 4 3 3 2 2 1 1 1 1 1 1 2 2 2 2 2 3 4 4 4 4 2 1 -0 -1 -2 -3
11 10 9 8 7 7 6 6 6 6 6 6 6 5 4 4 3 3 3 3 2 2 2 1 1 1 1 1 1 1 2 2 2 3 4 4 4 5 4 3 1 -0 -1 -2 -3
10 10 9 8 7 6 6 6 5 6 6 6 5 5 4 3 3 3 2 2 2 2 2 1 1 1 0 1 1 1 1 2 2 3 4 4 5 5 4 4 2 0 -1 -2 -3